Voltar ao catálogo

CZ-4 DEB

AtivoSSO
NORAD 23254·DEBRIS·🇨🇳 China

Lançado Sep 3, 1990 de Taiyuan Satellite Launch Center

Loading…

Próximas Passagens (próximas 24 horas)

TLE

AtualizadoSource: Space-Track

Época: Sep 12, 2026, 03:14 UTC

1 23254U 90081CK  26255.13534077  .00000487  00000-0  15913-3 0  9995
2 23254  98.4608 316.3964 0064415 308.5422  51.0005 14.41825851690183

Acompanhe CZ-4 DEB em tempo real com AllMySat

Download on the App Store